Location: Drocourt
(49.0571°N, 1.7669°E)
Time: 00:15:39
(UTC+00:00)

SR - Pass Details

Date: 19 April 2024
Orbit: 579 x 859 km, 66.7° (Epoch: 25 May)

Event Time Altitude Azimuth Distance (km) Brightness Sun altitude
Rises 02:19:25 0° 216° (SW) 3,352 - -21.5°
Reaches altitude 10° 02:21:56 10° 217° (SW) 2,390 - -21.2°
Exits shadow 02:25:44 45° 223° (SW) 1,060 ? -20.8°
Maximum altitude 02:27:27 83° 305° (NW) 781 ? -20.6°
Drops below altitude 10° 02:32:34 10° 35° (NE) 2,224 ? -20.1°
Sets 02:34:50 0° 36° (NE) 3,103 ? -19.8°
